SCP
0 0 0 0 0 0 0 0 0 0 0 0 0 0 0 0 0 0 0 0 0 0 0 0 0 0 0 0 0 0 0 0 0 0 0 0 0 0 0 0 0 0 0
0 0 0 0 0 0 0 0 0 0 0 0 0 0 0 0 0 0 0 0 0 0 0 0 0 0 0 0 0 0 0 0 0 0 0 0 0 0 0 0 0 0 0
0 0 0 0 0 0 0 0 0 0 0 0 0 0 0 0 0 0 0 0 0 0 0 0 0 0 0 0 0 0 0 0 0 0 0 0 0 0 0 0 0 0 0
0 0 0 0 0 0 0 0 0 0 0 0 0 0 0 0 0 0 0 0 0 0 0 0 0 0 0 0 0 0 0 0 0 0 0 0 0 0 0 0 0 0 0
0 0 0 0 0 0 0 0 0 0 0 0 0 0 0 0 0 0 0 0 0 0 0 0 0 0 0 0 0 0 0 0 0 0 0 0 0 0 0 0 0 0 0
0 0 0 0 0 0 0 0 0 0 0 0 0 0 0 0 0 0 0 0 0 0 0 0 0 0 0 0 0 0 0 0 0 0 0 0 0 0 0 0 0 0 0
0 0 0 0 0 0 0 0 0 0 0 0 0 0 0 0 0 0 0 0 0 0 0 0 0 0 0 0 0 0 0 0 0 0 0 0 0 0 0 0 0 0 0
0 0 0 0 0 0 0 0 0 0 0 0 0 0 0 0 0 0 0 0 0 0 0 0 0 0 0 0 0 0 0 0 0 0 0 0 0 0 0 0 0 0 0
0 0 0 0 0 0 0 0 0 0 0 0 0 0 0 0 0 0 0 0 0 0 0 0 0 0 0 0 0 0 0 0 0 0 0 0 0 0 0 0 0 0 0
0 0 0 0 0 0 0 0 0 0 0 0 0 0 0 0 0 0 0 0 0 0 0 0 0 0 0 0 0 0 0 0 0 0 0 0 0 0 0 0 0 0 0
0 0 0 0 0 0 0 0 0 0 0 0 0 0 0 0 0 0 0 0 0 0 0 0 0 0 0 0 0 0 0 0 0 0 0 0 0 0 0 0 0 0 0
0 0 0 0 0 0 0 0 0 0 0 0 0 0 0 0 0 0 0 0 0 0 0 0 0 0 0 0 0 0 0 0 0 0 0 0 0 0 0 0 0 0 0
0 0 0 0 0 0 0 0 0 0 0 0 0 0 0 0 0 0 0 0 0 0 0 0 0 0 0 0 0 0 0 0 0 0 0 0 0 0 0 0 0 0 0
0 0 0 0 0 0 0 0 0 0 0 0 0 0 0 0 0 0 0 0 0 0 0 0 0 0 0 0 0 0 0 0 0 0 0 0 0 0 0 0 0 0 0
0 0 0 0 0 0 0 0 0 0 0 0 0 0 0 0 0 0 0 0 0 0 0 0 0 0 0 0 0 0 0 0 0 0 0 0 0 0 0 0 0 0 0
0 0 0 0 0 0 0 0 0 0 0 0 0 0 0 0 0 0 0 0 0 0 0 0 0 0 0 0 0 0 0 0 0 0 0 0 0 0 0 0 0 0 0
0 0 0 0 0 0 0 0 0 0 0 0 0 0 0 0 0 0 0 0 0 0 0 0 0 0 0 0 0 0 0 0 0 0 0 0 0 0 0 0 0 0 0
0 0 0 0 0 0 0 0 0 0 0 0 0 0 0 0 0 0 0 0 0 0 0 0 0 0 0 0 0 0 0 0 0 0 0 0 0 0 0 0 0 0 0
0 0 0 0 0 0 0 0 0 0 0 0 0 0 0 0 0 0 0 0 0 0 0 0 0 0 0 0 0 0 0 0 0 0 0 0 0 0 0 0 0 0 0
0 0 0 0 0 0 0 0 0 0 0 0 0 0 0 0 0 0 0 0 0 0 0 0 0 0 0 0 0 0 0 0 0 0 0 0 0 0 0 0 0 0 0
0 0 0 0 0 0 0 0 0 0 0 0 0 0 0 0 0 0 0 0 0 0 0 0 0 0 0 0 0 0 0 0 0 0 0 0 0 0 0 0 0 0 0
0 0 0 0 0 0 0 0 0 0 0 0 0 0 0 0 0 0 0 0 0 0 0 0 0 0 0 0 0 0 0 0 0 0 0 0 0 0 0 0 0 0 0
0 0 0 0 0 0 0 0 0 0 0 0 0 0 0 0 0 0 0 0 0 0 0 0 0 0 0 0 0 0 0 0 0 0 0 0 0 0 0 0 0 0 0
0 0 0 0 0 0 0 0 0 0 0 0 0 0 0 0 0 0 0 0 0 0 0 0 0 0 0 0 0 0 0 0 0 0 0 0 0 0 0 0 0 0 0
0 0 0 0 0 0 0 0 0 0 0 0 0 0 0 0 0 0 0 0 0 0 0 0 0 0 0 0 0 0 0 0 0 0 0 0 0 0 0 0 0 0 0
0 0 0 0 0 0 0 0 0 0 0 0 0 0 0 0 0 0 0 0 0 0 0 0 0 0 0 0 0 0 0 0 0 0 0 0 0 0 0 0 0 0 0
Wind_Speed
3 3 2 3 3 3 3 2 2 2 2 2 2 2 2 2 2 2 2 4 4 3 3 1 1 2 2 4 4 5 5 6 7 7 6 6 6 5 5 5 5 6 5
3 3 3 3 3 3 3 2 1 1 1 2 2 2 2 2 2 2 2 3 4 4 3 2 2 1 2 3 4 4 5 5 6 6 6 6 6 5 5 5 5 6 6
3 3 2 3 3 3 3 2 1 1 1 1 2 2 2 1 2 2 2 2 2 4 4 3 3 2 2 1 3 4 4 5 5 5 5 5 6 5 5 5 5 6 6
4 3 2 3 3 3 2 2 1 1 1 1 1 2 2 2 2 2 1 1 1 2 3 4 4 3 3 3 2 3 4 5 5 5 5 5 5 5 5 5 5 5 5
4 3 2 2 3 2 2 3 2 1 1 2 1 1 1 2 2 1 1 1 1 1 1 3 4 4 4 4 4 4 4 5 5 6 6 5 5 5 6 5 5 5 5
5 4 2 3 3 2 2 2 2 2 1 1 2 2 2 2 1 1 2 1 1 1 1 1 2 3 4 4 5 5 5 6 5 5 6 6 6 6 6 5 5 5 4
5 4 3 3 3 2 3 3 2 2 2 1 1 1 2 1 1 1 1 1 1 1 1 1 1 1 2 4 5 6 6 6 6 6 6 6 7 7 6 6 6 5 5
5 4 4 3 3 2 3 3 2 1 1 1 1 1 1 2 2 1 1 1 1 1 1 2 2 2 2 1 3 4 4 5 6 7 7 6 6 8 7 7 6 6 5
6 5 5 4 3 2 2 2 2 1 1 1 1 0 1 2 2 2 1 1 1 1 1 2 2 2 2 1 2 3 4 4 6 8 8 7 6 6 8 8 7 7 6
5 5 5 5 4 3 3 3 3 2 2 2 1 1 2 1 1 2 2 1 1 2 2 2 2 2 2 2 2 3 4 4 6 7 8 7 7 7 7 7 8 8 7
5 5 5 5 4 4 4 4 3 3 2 2 2 2 2 2 2 2 4 2 2 2 2 2 2 2 2 2 2 3 4 4 6 6 7 8 8 8 8 7 7 8 8
4 5 5 5 5 4 4 4 4 4 4 4 3 2 2 2 2 2 3 4 4 3 3 2 2 2 2 2 3 4 4 5 6 6 7 8 8 8 8 8 7 7 7
5 5 6 5 5 5 5 5 4 4 4 4 4 4 3 3 3 3 3 3 4 3 2 2 2 2 2 2 3 4 5 5 6 6 7 7 6 6 7 7 7 7 7
5 6 6 6 6 6 6 5 4 5 4 5 5 5 4 4 3 4 3 3 4 3 3 4 2 2 2 2 3 4 3 5 5 6 7 7 6 5 6 6 7 7 6
6 6 6 6 6 6 6 5 4 5 5 5 5 5 5 4 4 4 4 4 4 5 5 3 2 2 2 2 3 3 3 5 6 6 6 6 5 5 5 6 6 6 6
6 7 6 6 6 6 6 5 5 5 5 5 5 5 5 4 4 4 4 4 4 5 6 3 3 3 3 3 5 3 3 6 6 6 6 5 5 5 5 5 6 6 6
6 7 7 7 7 7 6 6 6 6 6 6 6 6 6 6 5 4 4 4 4 4 6 4 3 3 3 4 3 3 3 3 3 5 6 6 6 5 6 6 6 6 7
6 7 7 7 7 7 7 7 7 7 7 7 7 7 7 6 6 5 5 5 5 5 5 6 4 3 4 4 3 4 3 3 2 5 6 6 6 6 5 6 6 6 7
7 7 7 7 8 8 8 8 8 8 8 8 7 8 8 7 7 6 6 6 5 5 4 5 5 3 3 3 3 3 3 3 3 4 5 5 5 6 6 6 6 6 6
7 7 8 7 8 8 8 8 9 9 8 8 8 8 8 8 8 8 7 7 6 5 5 5 5 3 3 3 3 3 3 3 3 3 4 4 4 5 5 6 6 6 6
8 8 8 8 8 7 7 9 9 9 9 9 8 8 9 10 12 10 7 6 6 6 5 5 5 4 4 3 4 3 4 3 3 3 3 2 3 3 3 5 6 7 7
7 8 8 8 8 7 13 16 13 9 8 9 9 8 9 10 12 14 13 12 9 8 7 6 6 6 6 5 4 4 3 3 4 2 2 3 2 3 3 3 5 7 7
7 8 8 8 9 10 16 16 16 10 8 8 8 8 8 8 10 8 10 12 11 12 12 9 8 9 7 6 6 6 6 5 5 3 3 3 2 3 3 4 6 6 7
7 8 8 8 9 11 16 17 17 10 8 8 8 9 9 8 8 9 8 8 8 8 10 8 8 8 6 6 7 7 7 5 4 3 3 4 3 3 3 3 6 6 7
7 8 8 8 8 11 15 17 16 8 7 8 8 8 9 8 12 13 9 8 8 7 9 11 11 10 11 11 8 5 5 5 5 4 3 3 3 2 3 3 4 6 7
8 8 8 8 8 9 14 16 15 6 7 6 6 7 11 11 12 13 9 8 8 7 6 6 7 8 8 8 10 7 6 6 4 4 4 3 3 2 2 2 2 2 4
Wind_Direction
8 3 2 5 1 1 1 358 12 13 11 7 8 15 6 3 354 352 343 352 350 349 337 322 246 203 179 174 175 173 167 159 158 155 155 149 144 146 148 150 150 147 142
7 2 360 358 356 354 346 340 336 4 8 5 358 355 351 347 345 342 339 344 348 346 344 326 301 268 227 196 185 182 180 171 165 164 163 159 155 154 156 155 152 149 145
3 6 359 353 346 344 343 338 349 19 18 8 352 343 334 331 319 323 330 335 340 352 353 341 320 296 280 244 217 207 193 182 176 169 169 168 164 160 157 160 155 150 146
2 6 359 349 342 342 346 341 358 8 353 350 332 321 320 312 305 302 325 341 348 346 346 344 337 322 305 291 265 231 208 189 184 182 177 173 172 167 163 159 155 152 151
0 0 349 344 346 348 348 345 343 349 325 334 315 308 309 296 285 296 310 326 334 333 327 332 332 326 315 298 281 257 227 203 194 192 190 188 186 176 166 160 156 154 156
358 359 349 349 352 352 346 349 340 344 320 322 319 322 308 292 285 272 273 284 309 318 316 321 321 314 308 296 289 273 248 225 206 195 195 194 192 188 180 175 169 168 168
354 356 351 347 352 346 339 339 343 351 354 357 6 337 319 295 284 285 287 275 302 322 325 315 301 292 292 301 293 276 256 232 212 202 197 200 196 193 189 184 181 182 184
349 349 353 345 343 343 346 343 350 343 319 341 360 331 318 320 324 307 298 284 313 334 331 324 327 308 296 290 294 285 266 242 227 216 208 204 199 197 197 197 196 195 197
351 346 343 343 338 337 320 319 316 303 274 268 277 212 216 253 309 299 285 282 310 321 308 316 316 309 302 298 290 287 280 267 243 228 217 209 204 201 204 203 203 203 203
346 348 344 342 337 327 317 306 317 296 273 265 272 270 266 235 249 290 291 304 313 296 286 294 294 301 309 297 289 297 292 271 253 241 231 219 211 208 208 212 212 210 211
342 342 339 338 336 327 314 305 304 299 277 263 252 259 268 278 250 249 274 294 302 286 284 275 276 279 280 284 280 289 294 285 266 254 243 229 221 216 216 219 222 220 218
331 338 332 332 328 322 315 306 297 289 281 273 263 250 239 238 237 238 257 278 285 293 294 274 267 267 260 266 279 288 281 275 271 264 256 241 232 228 224 223 225 225 224
325 327 327 321 318 314 308 307 303 290 279 275 264 254 249 246 244 245 249 268 278 288 283 272 256 256 263 256 265 277 271 265 262 260 260 259 245 236 234 231 227 226 228
310 313 315 314 310 309 310 307 299 295 285 273 272 260 252 250 239 235 232 239 270 278 265 260 269 249 262 254 262 270 264 264 258 258 263 269 270 251 238 233 226 226 226
309 314 313 311 311 308 306 304 296 293 291 281 275 271 259 254 247 243 236 227 231 256 265 254 255 265 266 266 269 260 252 261 261 257 258 262 269 257 236 231 228 229 227
309 310 310 310 310 307 301 295 291 291 289 289 285 277 268 259 253 247 240 236 236 240 254 245 250 272 276 277 272 269 260 271 263 256 252 252 249 255 237 230 230 229 227
309 310 308 308 305 303 300 293 289 287 283 284 285 281 278 262 253 248 244 240 239 237 250 265 257 261 254 254 266 262 252 254 255 254 250 244 242 248 241 229 230 231 228
305 307 306 305 302 301 299 294 288 286 279 277 278 275 278 276 258 251 243 241 241 236 239 255 259 251 253 247 245 251 262 259 247 259 254 246 242 242 247 233 227 230 228
305 305 303 300 300 300 297 293 286 279 273 270 268 268 269 270 263 255 247 243 242 244 236 242 254 248 255 246 246 259 263 263 263 260 254 248 246 244 244 238 226 223 228
305 303 300 298 297 296 295 292 289 280 271 267 263 261 261 258 259 255 249 243 237 236 235 235 247 246 245 235 226 239 258 250 258 261 256 254 250 249 247 239 231 228 230
305 303 301 300 299 294 289 289 284 279 274 269 264 260 259 260 260 256 252 242 234 232 233 234 239 242 234 222 226 226 242 249 256 241 239 246 241 242 245 244 237 230 226
303 303 301 299 298 297 299 299 296 285 280 274 268 264 263 264 266 264 263 255 244 237 231 234 240 237 236 227 223 227 232 239 255 222 216 252 226 237 242 239 240 228 221
302 301 298 296 294 295 301 302 300 295 282 277 273 268 266 263 267 261 261 259 253 250 246 238 237 238 235 227 219 227 230 239 245 221 202 244 226 239 247 243 247 240 224
299 297 297 296 295 298 305 306 305 300 284 274 269 263 262 262 259 254 249 249 245 246 246 242 239 242 241 230 225 230 235 240 251 241 214 236 229 234 248 242 238 242 237
298 296 295 294 296 300 306 308 307 295 285 277 272 267 261 256 259 260 253 248 248 249 254 248 247 247 247 245 240 227 222 222 241 241 215 217 221 231 241 242 242 243 242
295 299 300 298 295 297 306 311 312 298 290 284 277 271 267 264 262 260 249 243 243 247 243 247 250 253 251 245 243 232 218 222 231 236 209 198 205 200 244 246 240 238 240